Terug naar catalogus

STARLINK-6342

ActiefCommunicatieVLEO
NORAD 56770·PAYLOAD·🇺🇸 United States

Gelanceerd May 31, 2023 vanaf Vandenberg Space Force Base

Loading…

Volgende Passages (komende 24 uur)

TLE

VersSource: CelesTrak SupGP

Epoch: Sep 14, 2026, 21:24 UTC

1 56770C 23078D   26257.89215278  .00723940  00000+0  60259-1 0  2573
2 56770  70.0003 247.4095 0003572 263.0231 245.0628 14.98227507    15

Volg STARLINK-6342 in realtime met AllMySat

Download on the App Store